星链-1572 (STARLINK-1572 )

导读

STARLINK-1572是美国SpaceX星链计划中的卫星,于2020年8月7日发射升空,属于低轨互联网星座卫星,旨在为全球提供高速低延迟互联网接入服务,服务覆盖偏远地区、海上航行以及航空飞行等场景,是星链星座组网进程中的一员,推进了星链全球覆盖的部署进度。

基本信息
目录编号:
46060
目录名称:
STARLINK-1572
国际标识:
2020-055AK
轨道中心:
EARTH
卫星名称:
星链-1572
卫星全名:
星链-1572 (STARLINK-1572 )
卫星状态:
在轨 (已飞行2228 天)
发射日期:
2020-08-07 UTC
国别 :
美国 (US)
星等 :
--
该卫星已列入 空间交会检测服务 Space Conjunction Data Service (SCDS) ,当前飞行风险评估等级: 无高风险
轨道信息
数据来源 国际轨道数据
星历时间: 2026-09-13T11:41:48+0800
8小时前
查看轨道信息
半长轴: 6848.836km
偏心率: 0.0001202
轨道倾角: 53.159°
近地点辐角 87.032°
升交点赤经 323.055°
平近点角 273.082°
近地点: 469.875km
远地点: 471.523km
周期: 94.012分钟
每日圈数: 15.317138
详细信息
固有亮度:
5
最大亮度:
2.5
卫星平台:
Starlink V1.0
覆盖范围:
全球
运营商:
太空探索技术公司
运营商所在国:
美国
制造商(研发单位):
太空探索技术公司
制造商所在国:
美国
使用方式:
暂无
卫星简介
星链(Starlink)计划是由太空探索技术公司(SpaceX)提出的一个巨型低轨卫星互联网星座项目,计划在2019年至2024年间在太空搭建由约1.2万颗卫星组成的“星链”网络,其中1584颗将部署在地球上空550千米处的近地轨道,并从2020年开始工作。该卫星仍在工作。
2D轨道图
3D轨道图
轨道高度分析图
轨道倾角分析图
轨道综合分析图
查看轨道综合分析图
与全量物体交会距离演化趋势
与全量物体交会风险概率演化趋势